This is the latest recevied weather packets stored in our database for station/object K4DFD-13. If no packets are shown the sender has not sent any weather packets the latest 10 day(s).
| Time | Temp. | Humidity | Pressure | Rain* | Wind** | Luminosity | Snow |
|---|---|---|---|---|---|---|---|
| 1777660938 | 17.78° C | 45% | 1012.5 hPa | 0 mm | - | - | - |
| 1777660637 | 17.78° C | 44% | 1012.5 hPa | 0 mm | - | - | - |
| 1777660337 | 17.78° C | 45% | 1012.5 hPa | 0 mm | - | - | - |
| 1777660037 | 17.22° C | 45% | 1012.7 hPa | 0 mm | - | - | - |
| 1777659736 | 17.22° C | 46% | 1012.9 hPa | 0 mm | - | - | - |
| 1777659436 | 17.22° C | 44% | 1012.9 hPa | 0 mm | - | - | - |
| 1777659135 | 17.78° C | 44% | 1012.9 hPa | 0 mm | - | - | - |
| 1777658835 | 17.78° C | 45% | 1012.9 hPa | 0 mm | - | - | - |
| 1777658535 | 17.22° C | 44% | 1012.9 hPa | 0 mm | - | - | - |
| 1777658234 | 17.22° C | 46% | 1013 hPa | 0 mm | - | - | - |
| 1777657934 | 17.22° C | 41% | 1013.1 hPa | 0 mm | - | - | - |
| 1777657634 | 16.67° C | 43% | 1013.3 hPa | 0 mm | - | - | - |
| 1777657333 | 16.67° C | 42% | 1013.4 hPa | 0 mm | - | - | - |
| 1777657033 | 16.11° C | 43% | 1013.5 hPa | 0 mm | - | - | - |
| 1777656733 | 16.67° C | 42% | 1013.5 hPa | 0 mm | - | - | - |
| 1777656432 | 16.67° C | 41% | 1013.4 hPa | 0 mm | - | - | - |
| 1777656132 | 16.67° C | 41% | 1013.4 hPa | 0 mm | - | - | - |
| 1777655831 | 16.67° C | 41% | 1013.6 hPa | 0 mm | - | - | - |
| 1777655531 | 16.67° C | 39% | 1013.7 hPa | 0 mm | - | - | - |
| 1777655231 | 16.11° C | 39% | 1013.7 hPa | 0 mm | - | - | - |
| 1777654930 | 16.11° C | 41% | 1013.7 hPa | 0 mm | - | - | - |
| 1777654630 | 16.11° C | 40% | 1013.8 hPa | 0 mm | - | - | - |
| 1777654330 | 16.11° C | 40% | 1014 hPa | 0 mm | - | - | - |
| 1777654029 | 16.11° C | 39% | 1014 hPa | 0 mm | - | - | - |
| 1777653729 | 16.11° C | 38% | 1013.9 hPa | 0 mm | - | - | - |
* Rain latest hour (hover to see other rain measurements)
** Current wind speed in m/s (hover to see current wind gust speed)